Estación de Nogales

Ultimos registro cada 15 minutos 23
Estación Fecha / Hora Temperatura Humedad Lluvia Velocidad Dirección Radiación Presion
23 Nogales 04-09-2026 05:30 4,9 97,1 0 0 233 0,6 989,7
22 Nogales 04-09-2026 05:15 4,8 96,9 0 0 233 0,6 989,8
21 Nogales 04-09-2026 05:00 4,7 96,7 0 0 233 0,6 989,8
20 Nogales 04-09-2026 04:45 5,1 96,6 0 0 233 0,6 989,7
19 Nogales 04-09-2026 04:30 5,1 96,6 0 0 233 0,6 989,8
18 Nogales 04-09-2026 04:15 5,4 96,7 0 0 233 0,6 990
17 Nogales 04-09-2026 04:00 5,6 96,6 0 0 233 0,6 990
16 Nogales 04-09-2026 03:45 5,5 96,5 0 0 233 0,6 990
15 Nogales 04-09-2026 03:30 5,5 96,2 0 0 233 0,6 990,1
14 Nogales 04-09-2026 03:15 6 96,3 0 0 233 0,6 990,1
13 Nogales 04-09-2026 03:00 5,8 95,9 0 0 233 0,6 990,4
12 Nogales 04-09-2026 02:45 6,1 95,9 0 0 233 0,6 990,5
11 Nogales 04-09-2026 02:30 5,9 95,6 0 0 233 0,6 990,6
10 Nogales 04-09-2026 02:15 6,2 95,5 0 0 233 0,6 990,7
9 Nogales 04-09-2026 02:00 6,3 95,2 0 0 233 0,6 990,8
8 Nogales 04-09-2026 01:45 6,6 95,1 0 0 233 0,6 990,8
7 Nogales 04-09-2026 01:30 6,6 95 0 0 233 0,6 990,8
6 Nogales 04-09-2026 01:15 7,1 95 0 0 233 0,6 991
5 Nogales 04-09-2026 01:00 6,9 94,7 0 0 233 0,6 991,1
4 Nogales 04-09-2026 00:45 7,2 94,6 0 0 232 0,6 991,2
3 Nogales 04-09-2026 00:30 7,4 94,1 0 0 232 0,6 991,3
2 Nogales 04-09-2026 00:15 7,7 93,9 0 0 232 0,6 991,3
1 Nogales 04-09-2026 00:00 7,9 94 0 0 232 0,6 991,3